Simultaneous Nadir Overpasses (SNOs) Predictions

Prediction of SNOs between METOP-B and TERRA Satellite Orbit:

Table of predicted SNOs for the next 14.0 days since TLE Epoch: 3/16/2017
Index Date (METOP-B) Time (METOP-B) Lat,Lon (METOP-B) SZA (METOP-B ) Date (TERRA) Time (TERRA) Lat,Lon (TERRA) SZA (TERRA ) Distance(km) Time Diff (sec)
1 03/17/2017 10:41:09 -81.31,-112.94 94.97 03/17/2017 10:41:49 -81.31,-112.81 94.94 2.24 40
2 03/17/2017 11:31:48 81.32, 54.81 85.07 03/17/2017 11:31:14 81.32, 54.92 85.07 1.87 34
3 03/20/2017 06:15:29 -81.32, -46.03 95.99 03/20/2017 06:16:03 -81.33, -46.16 95.99 2.27 34
4 03/20/2017 07:06:09 81.33, 121.69 84.05 03/20/2017 07:05:29 81.33, 121.55 84.01 2.45 40
5 03/23/2017 01:49:52 -81.32, 20.09 97.11 03/23/2017 01:50:19 -81.31, 20.06 97.10 0.68 27
6 03/23/2017 02:40:32 81.32,-172.23 82.93 03/23/2017 02:39:45 81.32,-172.26 82.90 0.86 47
7 03/25/2017 21:24:14 -81.32, 86.59 98.17 03/25/2017 21:24:34 -81.32, 86.62 98.16 0.49 20
8 03/25/2017 22:14:54 81.32,-105.77 81.85 03/25/2017 22:14:00 81.32,-105.72 81.83 0.92 54
9 03/28/2017 16:58:35 -81.32, 153.08 99.24 03/28/2017 16:58:48 -81.32, 153.13 99.22 1.00 13




NCC Satellite Simultaneous Nadir Overpasses (SNOs) Prediction Service
